GSAT0209 (PRN E09)

Last updated on Feb. 28, 2020, 4:49 a.m. UTC

1 41174U 15079A   20058.28465873  .00000003  00000-0  00000-0 0  9990
2 41174  54.9763 164.5387 0003890 311.1999  48.7699  1.70473952 26111
UTC
Height (km)
Latitude
Longitude
Inclination
Orbital Period
UTC large
Height (km)
Speed (km/s)
/
Latitude / Longitude
Inclination (degrees)
Orbital Period (minutes)
Azimuth
Elevation
Range (km)
Doppler Factor
iOS Compass Heading
iOS Angle

Next 30 passes for location: Hong Kong

Rise time Rise Azimuth (degrees) Set time Set Azimuth (degrees) Duration Max altitude (degrees)

No matching passes for this satellites